DW7002 Weather Reports


Display with metric or nautical units.
time (UTC)temp
F
wind
direction
speed
MPH
gust
MPH
rain 1hr
in
rain 24hr
in
rain mn
in
humidity
%
barometer
mb
20260502211121 57 134 1.0 6.0 0.00 0.00 0.00 52 1012.9
20260502210118 57 137 1.0 2.0 0.00 0.00 0.00 53 1012.9
20260502205128 57 138 1.0 2.0 0.00 0.00 0.00 53 1013.0
20260502204122 56 138 1.0 2.0 0.00 0.00 0.00 53 1013.0
20260502203120 56 128 1.0 5.0 0.00 0.00 0.00 54 1013.0
20260502202132 56 164 0.0 2.0 0.00 0.00 0.00 58 1013.1
20260502201125 55 166 1.0 2.0 0.00 0.00 0.00 57 1013.3
20260502200136 55 40 1.0 2.0 0.00 0.00 0.00 56 1013.5
20260502195130 55 40 0.0 2.0 0.00 0.00 0.00 59 1013.7
20260502194143 55 40 1.0 2.0 0.00 0.00 0.00 56 1013.8
20260502193134 55 40 1.0 2.0 0.00 0.00 0.00 57 1013.9
20260502192126 55 38 1.0 2.0 0.00 0.00 0.00 58 1014.0
20260502191143 55 30 1.0 2.0 0.00 0.00 0.00 58 1014.1
20260502190135 55 27 0.0 2.0 0.00 0.00 0.00 59 1014.1
20260502185123 55 36 1.0 2.0 0.00 0.00 0.00 59 1013.9
20260502184115 55 36 1.0 2.0 0.00 0.00 0.00 59 1014.0
20260502183132 55 48 0.0 2.0 0.00 0.00 0.00 58 1014.0
20260502182146 55 48 1.0 4.0 0.00 0.00 0.00 55 1014.1
20260502181118 55 36 1.0 2.0 0.00 0.00 0.00 57 1014.3
20260502180150 55 33 1.0 2.0 0.00 0.00 0.00 58 1014.2
20260502170130 54 24 2.0 4.0 0.00 0.00 0.00 57 1014.5
20260502164153 54 49 2.0 5.0 0.00 0.00 0.00 57 1014.9
20260502163129 54 42 1.0 3.0 0.00 0.00 0.00 59 1014.9
20260502162122 54 42 1.0 2.0 0.00 0.00 0.00 59 1015.2
20260502161115 53 43 1.0 2.0 0.00 0.00 0.00 60 1015.3
20260502160130 53 43 1.0 2.0 0.00 0.00 0.00 61 1015.8
20260502152140 53 43 1.0 4.0 0.00 0.00 0.00 60 1015.7
20260502151131 54 36 2.0 3.0 0.00 0.00 0.00 60 1015.6
20260502150124 54 53 1.0 4.0 0.00 0.00 0.00 65 1015.2
20260502140120 53 47 1.0 4.0 0.00 0.00 0.00 73 1015.3
20260502130118 53 79 0.0 0.0 0.00 0.00 0.00 79 1015.3
20260502123122 53 128 0.0 0.0 0.00 0.00 0.00 81 1014.6
20260502122134 53 156 0.0 0.0 0.00 0.00 0.00 81 1014.7
20260502121132 53 156 0.0 0.0 0.00 0.00 0.00 82 1014.8
20260502120124 53 157 0.0 0.0 0.00 0.00 0.00 83 1014.8
20260502115134 53 112 0.0 0.0 0.00 0.00 0.00 84 1014.5
20260502114126 53 115 0.0 0.0 0.00 0.00 0.00 84 1014.5
20260502113123 53 115 0.0 0.0 0.00 0.00 0.00 85 1014.5
20260502112136 53 115 0.0 0.0 0.00 0.00 0.00 84 1014.2
20260502111130 53 115 0.0 0.0 0.00 0.00 0.00 84 1014.3
20260502110124 53 115 0.0 0.0 0.00 0.00 0.00 84 1014.2
20260502105155 53 115 0.0 0.0 0.00 0.00 0.00 84 1014.0
20260502104126 53 115 0.0 0.0 0.00 0.00 0.00 85 1014.2
20260502103117 53 169 0.0 0.0 0.00 0.00 0.00 86 1014.2
20260502102133 52 169 0.0 0.0 0.00 0.00 0.00 88 1014.2
20260502101125 52 169 0.0 0.0 0.00 0.00 0.00 89 1014.5
20260502100117 52 169 0.0 0.0 0.00 0.00 0.00 90 1014.5
20260502091145 53 169 0.0 0.0 0.00 0.00 0.00 89 1014.7
20260502090119 52 169 0.0 0.0 0.00 0.00 0.00 89 1014.3
20260502071120 51 169 0.0 0.0 0.00 0.00 0.00 91 1013.5
20260502070131 51 169 0.0 0.0 0.00 0.00 0.00 90 1013.7
20260502065140 51 169 0.0 0.0 0.00 0.00 0.00 91 1013.7
20260502064117 51 169 0.0 0.0 0.00 0.00 0.00 90 1013.8
20260502063130 51 169 0.0 0.0 0.00 0.00 0.00 90 1014.0
20260502062124 51 169 0.0 0.0 0.00 0.00 0.00 90 1014.0
20260502061116 51 169 0.0 0.0 0.00 0.00 0.00 89 1013.7
20260502060130 51 169 0.0 0.0 0.00 0.00 0.00 89 1013.7
20260502055120 51 169 0.0 0.0 0.00 0.00 0.00 89 1013.7
20260502054133 51 169 0.0 0.0 0.00 0.00 0.00 89 1013.7
20260502053126 51 169 0.0 0.0 0.00 0.00 0.00 89 1013.7
20260502052123 51 169 0.0 0.0 0.00 0.00 0.00 89 1013.9
20260502051117 51 169 0.0 0.0 0.00 0.00 0.00 89 1014.0
20260502050129 51 169 0.0 0.0 0.00 0.00 0.00 89 1014.1
20260502045122 51 169 0.0 0.0 0.00 0.00 0.00 88 1014.2
20260502044115 51 169 0.0 0.0 0.00 0.00 0.00 88 1014.1
20260502043126 51 169 0.0 0.0 0.00 0.00 0.00 88 1014.2
20260502042119 51 169 0.0 0.0 0.00 0.00 0.00 87 1014.2
20260502041116 51 169 0.0 0.0 0.00 0.00 0.00 87 1014.2
20260502040127 52 169 0.0 0.0 0.00 0.00 0.00 86 1014.4
20260502035115 52 169 0.0 0.0 0.00 0.00 0.00 86 1014.4
20260502034131 52 169 0.0 0.0 0.00 0.00 0.00 86 1014.4
20260502033123 52 169 0.0 0.0 0.00 0.00 0.00 86 1014.5
20260502032116 52 169 0.0 0.0 0.00 0.00 0.00 86 1014.5
20260502031129 52 169 0.0 0.0 0.00 0.00 0.00 85 1014.7
20260502030124 52 169 0.0 0.0 0.00 0.00 0.00 85 1014.5
20260502025134 52 169 0.0 0.0 0.00 0.00 0.00 85 1014.5
20260502024125 52 169 0.0 0.0 0.00 0.00 0.00 84 1014.5
20260502023123 53 169 0.0 0.0 0.00 0.00 0.00 84 1014.6
20260502022133 53 169 0.0 0.0 0.00 0.00 0.00 83 1014.5
20260502021127 53 169 0.0 0.0 0.00 0.00 0.00 82 1014.6
20260502020121 54 169 0.0 0.0 0.00 0.00 0.00 82 1014.7
20260502015116 54 169 0.0 0.0 0.00 0.00 0.00 82 1014.7
20260502014149 54 169 0.0 0.0 0.00 0.00 0.00 81 1014.7
20260502013121 55 169 0.0 0.0 0.00 0.00 0.00 80 1014.5
20260502012134 55 169 0.0 0.0 0.00 0.00 0.00 80 1014.5
20260502011130 55 169 0.0 0.0 0.00 0.00 0.00 79 1014.5
20260502010119 56 169 0.0 2.0 0.00 0.00 0.00 79 1014.3
20260502005130 56 169 0.0 2.0 0.00 0.00 0.00 79 1014.1
20260502004126 56 168 1.0 5.0 0.00 0.00 0.00 79 1014.0
20260502003118 56 223 1.0 4.0 0.00 0.00 0.00 78 1013.8
20260502002132 57 178 1.0 6.0 0.00 0.00 0.00 78 1013.8
20260502001124 57 170 1.0 4.0 0.00 0.00 0.00 77 1013.6
20260502000118 58 147 0.0 4.0 0.00 0.00 0.00 76 1013.4
20260501235128 58 105 1.0 4.0 0.00 0.00 0.00 74 1013.4
20260501234120 59 158 1.0 3.0 0.00 0.00 0.00 73 1013.5
20260501233116 59 187 1.0 3.0 0.00 0.00 0.00 72 1013.7
20260501232130 60 179 1.0 4.0 0.00 0.00 0.00 70 1013.3
20260501231123 60 183 2.0 4.0 0.00 0.00 0.00 69 1013.2
20260501230137 60 152 1.0 4.0 0.00 0.00 0.00 69 1013.4
20260501225129 61 192 3.0 6.0 0.00 0.00 0.00 66 1013.4
20260501224122 61 132 1.0 5.0 0.00 0.00 0.00 66 1013.5
20260501223135 62 152 2.0 5.0 0.00 0.00 0.00 65 1013.4
20260501222128 62 132 2.0 6.0 0.00 0.00 0.00 63 1013.4
20260501221126 63 145 4.0 9.0 0.00 0.00 0.00 62 1013.4
20260501220117 63 317 2.0 5.0 0.00 0.00 0.00 61 1013.4
20260501215127 63 178 3.0 5.0 0.00 0.00 0.00 59 1013.8
20260501214124 63 259 1.0 4.0 0.00 0.00 0.00 60 1013.7
20260501213117 64 90 3.0 6.0 0.00 0.00 0.00 60 1013.7
20260501212130 64 175 1.0 5.0 0.00 0.00 0.00 59 1013.7